Weather History for KEDJ - November, 2013

Change the Weather History Date:

Monday, November 18, 2013

  Actual Average (KDAY) Record (KDAY)
Temperature  
Mean Temperature 38 °F 42 °F  
Max Temperature 44 °F 50 °F 75 °F (1930)
Min Temperature 33 °F 34 °F 10 °F (2014)
Degree Days  
Heating Degree Days 26 23  
Month to date heating degree days 351  
Since 1 July heating degree days 798  
Cooling Degree Days 0 0  
Month to date cooling degree days 0  
Year to date cooling degree days 891  
Moisture  
Dew Point 34 °F    
Average Humidity 78    
Maximum Humidity 93    
Minimum Humidity 61    
Precipitation  
Precipitation 0.00 in 0.12 in 2.94 in (1938)
Month to date precipitation 1.97  
Year to date precipitation 36.51  
Snow  
Snow 0.00 in 0.00 in 2.70 in (1984)
Month to date snowfall 0.2  
Since 1 July snowfall 0.6  
Since 1 September snowfall 0.6  
Snow Depth -    
Sea Level Pressure  
Sea Level Pressure 29.91 in    
Wind  
Wind Speed 15 mph (West)    
Max Wind Speed 25 mph    
Max Gust Speed 36 mph    
Visibility 10 miles    
Events      
T = Trace of Precipitation, MM = Missing Value Source: NWS Daily Summary

Daily Weather History Graph

Daily Weather History Graph

Search for Another Location

Airport or City:

Trip Planner

Search our weather history database for the weather conditions in past years. The results will help you decide how hot, cold, wet, or windy it might be!

Date:

Astronomy

Nov. 18, 2013 Rise Set
Actual Time 7:25 AM EST 5:15 PM EST
Civil Twilight 6:55 AM EST 5:45 PM EST
Nautical Twilight 6:22 AM EST 6:18 PM EST
Astronomical Twilight 5:50 AM EST 6:50 PM EST
Moon 6:17 PM EST (11/18) 8:12 AM EST (11/18)
Length of Visible Light 10h 49m
Length of Day
9h 50m
Full, 99% of the Moon is Illuminated
Nov 18
Full
Nov 25
Last Quarter
Dec 2
New
Dec 9
First Quarter
Dec 17
Full

Hourly Weather History & Observations

Time (EST) Temp. Windchill Dew Point Humidity Pressure Visibility Wind Dir Wind Speed Gust Speed Precip Events Conditions
12:05 AM 44.6 °F 37.2 °F 39.2 °F 81% 29.70 in 10.0 mi WSW 17.3 mph 23.0 mph 0.00 in   Clear
12:25 AM 44.6 °F 37.8 °F 39.2 °F 81% 29.70 in 10.0 mi West 15.0 mph 23.0 mph 0.00 in   Clear
12:45 AM 44.6 °F 37.2 °F 39.2 °F 81% 29.72 in 10.0 mi WSW 17.3 mph 24.2 mph 0.00 in   Scattered Clouds
1:05 AM 44.6 °F 36.9 °F 39.2 °F 81% 29.73 in 10.0 mi WSW 18.4 mph 23.0 mph 0.00 in   Mostly Cloudy
1:25 AM 44.6 °F 38.1 °F 39.2 °F 81% 29.73 in 10.0 mi West 13.8 mph 27.6 mph 0.00 in   Scattered Clouds
1:45 AM 44.6 °F 37.4 °F 39.2 °F 81% 29.74 in 10.0 mi West 16.1 mph 23.0 mph 0.00 in   Mostly Cloudy
2:05 AM 44.6 °F 37.4 °F 39.2 °F 81% 29.75 in 10.0 mi West 16.1 mph 27.6 mph 0.00 in   Mostly Cloudy
2:25 AM 44.6 °F 37.8 °F 39.2 °F 81% 29.76 in 10.0 mi WSW 15.0 mph 19.6 mph 0.00 in   Mostly Cloudy
2:45 AM 42.8 °F 35.1 °F 39.2 °F 87% 29.77 in 10.0 mi West 16.1 mph - 0.00 in   Mostly Cloudy
3:05 AM 42.8 °F 34.5 °F 39.2 °F 87% 29.77 in 10.0 mi WSW 18.4 mph 23.0 mph 0.00 in   Overcast
3:25 AM 42.8 °F 34.8 °F 37.4 °F 81% 29.78 in 10.0 mi West 17.3 mph 23.0 mph 0.00 in   Scattered Clouds
3:45 AM 41.0 °F 32.5 °F 37.4 °F 87% 29.79 in 10.0 mi WSW 17.3 mph 20.7 mph 0.00 in   Clear
4:05 AM 39.2 °F 30.5 °F 37.4 °F 93% 29.79 in 10.0 mi WSW 16.1 mph - 0.00 in   Clear
4:25 AM 39.2 °F 31.2 °F 37.4 °F 93% 29.80 in 10.0 mi WSW 13.8 mph - 0.00 in   Clear
4:45 AM 39.2 °F 30.5 °F 35.6 °F 87% 29.80 in 10.0 mi West 16.1 mph 24.2 mph 0.00 in   Clear
5:05 AM 39.2 °F 31.2 °F 35.6 °F 87% 29.81 in 10.0 mi WSW 13.8 mph - 0.00 in   Clear
5:25 AM 39.2 °F 30.5 °F 35.6 °F 87% 29.82 in 10.0 mi WSW 16.1 mph - 0.00 in   Clear
5:45 AM 39.2 °F 30.5 °F 35.6 °F 87% 29.82 in 10.0 mi WSW 16.1 mph 19.6 mph 0.00 in   Clear
6:05 AM 39.2 °F 30.8 °F 35.6 °F 87% 29.82 in 10.0 mi WSW 15.0 mph - 0.00 in   Clear
6:25 AM 39.2 °F 30.2 °F 35.6 °F 87% 29.83 in 10.0 mi WSW 17.3 mph 23.0 mph 0.00 in   Clear
6:45 AM 39.2 °F 31.2 °F 35.6 °F 87% 29.83 in 10.0 mi WSW 13.8 mph 18.4 mph 0.00 in   Clear
7:05 AM 39.2 °F 31.2 °F 35.6 °F 87% 29.82 in 10.0 mi WSW 13.8 mph 23.0 mph 0.00 in   Clear
7:25 AM 39.2 °F 31.2 °F 35.6 °F 87% 29.82 in 10.0 mi WSW 13.8 mph - 0.00 in   Clear
7:45 AM 39.2 °F 31.6 °F 35.6 °F 87% 29.83 in 10.0 mi WSW 12.7 mph - 0.00 in   Clear
8:05 AM 39.2 °F 30.8 °F 35.6 °F 87% 29.83 in 10.0 mi WSW 15.0 mph 24.2 mph 0.00 in   Clear
8:25 AM 41.0 °F 33.5 °F 35.6 °F 81% 29.84 in 10.0 mi WSW 13.8 mph 23.0 mph 0.00 in   Clear
8:45 AM 41.0 °F 31.9 °F 35.6 °F 81% 29.84 in 10.0 mi WSW 19.6 mph 25.3 mph 0.00 in   Clear
9:05 AM 42.8 °F 34.0 °F 35.6 °F 76% 29.84 in 10.0 mi WSW 20.7 mph 25.3 mph 0.00 in   Clear
9:25 AM 42.8 °F 34.5 °F 35.6 °F 76% 29.85 in 10.0 mi WSW 18.4 mph 26.5 mph 0.00 in   Clear
9:45 AM 42.8 °F 34.0 °F 35.6 °F 76% 29.85 in 10.0 mi WSW 20.7 mph 28.8 mph 0.00 in   Partly Cloudy
10:05 AM 42.8 °F 33.8 °F 35.6 °F 76% 29.86 in 10.0 mi West 21.9 mph 27.6 mph 0.00 in   Partly Cloudy
10:25 AM 42.8 °F 33.3 °F 33.8 °F 70% 29.87 in 10.0 mi West 24.2 mph 35.7 mph 0.00 in   Clear
10:45 AM 42.8 °F 34.0 °F 33.8 °F 70% 29.88 in 10.0 mi West 20.7 mph 32.2 mph 0.00 in   Clear
11:05 AM 42.8 °F 33.1 °F 33.8 °F 70% 29.88 in 10.0 mi West 25.3 mph 33.4 mph 0.00 in   Clear
11:25 AM 44.6 °F 35.7 °F 33.8 °F 66% 29.88 in 10.0 mi West 24.2 mph 31.1 mph 0.00 in   Partly Cloudy
11:45 AM 44.6 °F 36.9 °F 33.8 °F 66% 29.88 in 10.0 mi West 18.4 mph 27.6 mph 0.00 in   Partly Cloudy
12:05 PM 44.6 °F 35.9 °F 32.0 °F 61% 29.88 in 10.0 mi West 23.0 mph 28.8 mph 0.00 in   Partly Cloudy
12:25 PM 44.6 °F 36.9 °F 32.0 °F 61% 29.89 in 10.0 mi West 18.4 mph 28.8 mph 0.00 in   Partly Cloudy
12:45 PM 44.6 °F 36.9 °F 32.0 °F 61% 29.90 in 10.0 mi West 18.4 mph 26.5 mph 0.00 in   Partly Cloudy
1:05 PM 44.6 °F 36.4 °F 32.0 °F 61% 29.90 in 10.0 mi West 20.7 mph 27.6 mph 0.00 in   Partly Cloudy
1:25 PM 42.8 °F 34.8 °F 32.0 °F 66% 29.91 in 10.0 mi West 17.3 mph 23.0 mph 0.00 in   Mostly Cloudy
1:45 PM 44.6 °F 36.9 °F 32.0 °F 61% 29.91 in 10.0 mi West 18.4 mph 26.5 mph 0.00 in   Mostly Cloudy
2:05 PM 44.6 °F 36.6 °F 32.0 °F 61% 29.92 in 10.0 mi West 19.6 mph 27.6 mph 0.00 in   Mostly Cloudy
2:25 PM 44.6 °F 37.8 °F 32.0 °F 61% 29.93 in 10.0 mi West 15.0 mph 23.0 mph 0.00 in   Mostly Cloudy
2:45 PM 42.8 °F 35.4 °F 32.0 °F 66% 29.94 in 10.0 mi West 15.0 mph 21.9 mph 0.00 in   Partly Cloudy
3:05 PM 44.6 °F 38.1 °F 33.8 °F 66% 29.95 in 10.0 mi West 13.8 mph 26.5 mph 0.00 in   Mostly Cloudy
3:25 PM 42.8 °F 35.4 °F 32.0 °F 66% 29.96 in 10.0 mi West 15.0 mph - 0.00 in   Mostly Cloudy
3:45 PM 42.8 °F 36.2 °F 32.0 °F 66% 29.97 in 10.0 mi West 12.7 mph 19.6 mph 0.00 in   Mostly Cloudy
4:05 PM 42.8 °F 36.2 °F 32.0 °F 66% 29.98 in 10.0 mi West 12.7 mph 21.9 mph 0.00 in   Mostly Cloudy
4:25 PM 42.8 °F 35.4 °F 32.0 °F 66% 29.99 in 10.0 mi West 15.0 mph 18.4 mph 0.00 in   Overcast
4:45 PM 41.0 °F 34.7 °F 32.0 °F 70% 30.00 in 10.0 mi West 10.4 mph - 0.00 in   Mostly Cloudy
5:05 PM 39.2 °F 31.6 °F 32.0 °F 75% 30.01 in 10.0 mi WNW 12.7 mph 19.6 mph 0.00 in   Partly Cloudy
5:25 PM 39.2 °F 33.0 °F 32.0 °F 75% 30.02 in 10.0 mi West 9.2 mph - 0.00 in   Partly Cloudy
5:45 PM 37.4 °F 31.4 °F 32.0 °F 81% 30.03 in 10.0 mi West 8.1 mph - 0.00 in   Clear
6:05 PM 37.4 °F 31.4 °F 30.2 °F 75% 30.03 in 10.0 mi West 8.1 mph - 0.00 in   Clear
6:25 PM 35.6 °F 29.9 °F 30.2 °F 81% 30.04 in 10.0 mi West 6.9 mph - 0.00 in   Clear
6:45 PM 35.6 °F 30.7 °F 30.2 °F 81% 30.05 in 10.0 mi WNW 5.8 mph - 0.00 in   Clear
7:05 PM 35.6 °F 29.2 °F 30.2 °F 81% 30.06 in 10.0 mi NW 8.1 mph - 0.00 in   Clear
7:25 PM 35.6 °F 29.2 °F 30.2 °F 81% 30.07 in 10.0 mi NW 8.1 mph - 0.00 in   Clear
7:45 PM 35.6 °F 29.2 °F 30.2 °F 81% 30.07 in 10.0 mi WNW 8.1 mph - 0.00 in   Mostly Cloudy
8:05 PM 35.6 °F 29.2 °F 30.2 °F 81% 30.08 in 10.0 mi WNW 8.1 mph - 0.00 in   Overcast
8:25 PM 35.6 °F 28.0 °F 30.2 °F 81% 30.09 in 10.0 mi WNW 10.4 mph - 0.00 in   Overcast
8:45 PM 35.6 °F 27.5 °F 30.2 °F 81% 30.09 in 10.0 mi NW 11.5 mph 19.6 mph 0.00 in   Mostly Cloudy
9:05 PM 35.6 °F 28.0 °F 30.2 °F 81% 30.10 in 10.0 mi WNW 10.4 mph - 0.00 in   Mostly Cloudy
9:25 PM 33.8 °F 27.0 °F 28.4 °F 81% 30.11 in 10.0 mi NW 8.1 mph - 0.00 in   Partly Cloudy
9:45 PM 33.8 °F 27.7 °F 30.2 °F 87% 30.11 in 10.0 mi WNW 6.9 mph - 0.00 in   Partly Cloudy
10:05 PM 33.8 °F 27.7 °F 28.4 °F 81% 30.12 in 10.0 mi NW 6.9 mph - 0.00 in   Clear
10:25 PM 33.8 °F 28.6 °F 28.4 °F 81% 30.12 in 10.0 mi NW 5.8 mph - 0.00 in   Mostly Cloudy
10:45 PM 33.8 °F 28.6 °F 30.2 °F 87% 30.12 in 10.0 mi WNW 5.8 mph - 0.00 in   Overcast
11:05 PM 33.8 °F 27.0 °F 28.4 °F 81% 30.13 in 10.0 mi WNW 8.1 mph - 0.00 in   Overcast
11:25 PM 33.8 °F 26.4 °F 28.4 °F 81% 30.13 in 10.0 mi NW 9.2 mph - 0.00 in   Overcast
11:45 PM 33.8 °F 27.0 °F 28.4 °F 81% 30.13 in 10.0 mi WNW 8.1 mph - 0.00 in   Mostly Cloudy